TimeCST,TemperatureF,Dew PointF,Humidity,Sea Level PressureIn,VisibilityMPH,Wind Direction,Wind SpeedMPH,Gust SpeedMPH,PrecipitationIn,Events,Conditions,WindDirDegrees,DateUTC
12:54 AM,35.1,33.1,92,30.14,5.0,SSW,5.8,-,N/A,,Overcast,210,2012-11-08 06:54:00
1:54 AM,35.1,33.1,92,30.15,5.0,South,4.6,-,N/A,,Overcast,190,2012-11-08 07:54:00
2:54 AM,35.1,33.1,92,30.14,5.0,South,4.6,-,N/A,,Overcast,190,2012-11-08 08:54:00
3:54 AM,35.1,33.1,92,30.14,5.0,SSE,4.6,-,N/A,,Overcast,150,2012-11-08 09:54:00
4:54 AM,35.1,33.1,92,30.13,6.0,SE,3.5,-,N/A,,Overcast,140,2012-11-08 10:54:00
5:54 AM,35.1,32.0,89,30.12,6.0,SSE,3.5,-,N/A,,Overcast,150,2012-11-08 11:54:00
6:54 AM,35.1,33.1,92,30.12,7.0,SE,3.5,-,N/A,,Overcast,140,2012-11-08 12:54:00
7:20 AM,33.8,32.0,93,30.07,5.0,SSE,4.6,-,N/A,,Scattered Clouds,150,2012-11-08 13:20:00
7:54 AM,36.0,33.1,89,30.13,6.0,SSE,4.6,-,N/A,,Mostly Cloudy,160,2012-11-08 13:54:00
8:28 AM,37.4,32.0,81,30.08,8.0,South,5.8,-,N/A,,Overcast,180,2012-11-08 14:28:00
8:54 AM,39.0,33.1,79,30.12,10.0,SSE,9.2,-,N/A,,Mostly Cloudy,160,2012-11-08 14:54:00
9:02 AM,39.2,33.8,81,30.07,10.0,South,5.8,-,N/A,,Scattered Clouds,170,2012-11-08 15:02:00
9:54 AM,42.1,33.1,70,30.11,10.0,South,11.5,-,N/A,,Clear,190,2012-11-08 15:54:00
10:54 AM,45.0,33.1,63,30.09,10.0,SSW,13.8,23.0,N/A,,Partly Cloudy,210,2012-11-08 16:54:00
11:54 AM,45.0,34.0,65,30.07,10.0,South,10.4,-,N/A,,Clear,190,2012-11-08 17:54:00
12:54 PM,46.9,35.1,63,30.04,10.0,South,10.4,-,N/A,,Clear,180,2012-11-08 18:54:00
1:54 PM,48.0,35.1,61,30.01,10.0,South,13.8,-,N/A,,Clear,180,2012-11-08 19:54:00
2:54 PM,46.9,35.1,63,30.00,10.0,South,9.2,-,N/A,,Clear,170,2012-11-08 20:54:00
3:54 PM,46.9,35.1,63,29.99,10.0,South,8.1,-,N/A,,Clear,170,2012-11-08 21:54:00
4:54 PM,43.0,35.1,74,30.01,10.0,SSE,4.6,-,N/A,,Clear,160,2012-11-08 22:54:00
5:54 PM,43.0,35.1,74,30.03,10.0,Calm,Calm,-,N/A,,Clear,0,2012-11-08 23:54:00
6:54 PM,43.0,35.1,74,30.04,10.0,SW,3.5,-,N/A,,Clear,220,2012-11-09 00:54:00
7:54 PM,41.0,34.0,76,30.04,10.0,Calm,Calm,-,N/A,,Clear,0,2012-11-09 01:54:00
8:54 PM,41.0,34.0,76,30.04,10.0,ESE,4.6,-,N/A,,Clear,110,2012-11-09 02:54:00
9:54 PM,36.0,33.1,89,30.05,9.0,ESE,3.5,-,N/A,,Clear,110,2012-11-09 03:54:00
10:54 PM,37.0,34.0,89,30.06,8.0,Calm,Calm,-,N/A,,Overcast,0,2012-11-09 04:54:00
11:54 PM,36.0,33.1,89,30.06,8.0,ESE,3.5,-,N/A,,Overcast,110,2012-11-09 05:54:00